Regional Weather Roundup
Issued by NWS Cleveland, OH

Home | Current Version | Previous Version | Graphics & Text | Print | Product List | Glossary On
Versions: 1 2 3 4 5 6 7 8 9 10 11 12 13 14 15 16 17 18 19 20 21 22 23 24 25 26 27 28 29 30 31 32 33 34 35 36 37 38 39 40 41 42 43 44 45 46 47 48 49 50
000
ASUS41 KCLE 252202
RWRCLE
OHIO REGIONAL WEATHER ROUNDUP
NATIONAL WEATHER SERVICE CLEVELAND, OH
500 PM EST SUN JAN 25 2015

NOTE: "FAIR" INDICATES FEW OR NO CLOUDS BELOW 12,000 FEET WITH NO
SIGNIFICANT WEATHER AND/OR OBSTRUCTIONS TO VISIBILITY.

OHZ001>008-015>018-024>027-034-035-043-044-252300-
   NORTHWEST OHIO

CITY           SKY/WX    TMP DP  RH WIND       PRES   REMARKS
DEFIANCE       SNOW      22  18  85 NE15      29.86R VSB 1/2 WCI   9
FINDLAY        LGT SNOW  23  19  85 NE15      29.81R VSB 3/4 WCI  10
TOLEDO EXPRESS LGT SNOW  20  14  77 NE21G30   29.87R WCI   4
TOLEDO EXEC    LGT SNOW  20  14  77 NE13G23   29.89R WCI   7
LIMA           SNOW      25  20  81 NE16G26   29.76R VSB 1/2 WCI  12
$$

OHZ009>014-019>023-028>033-038-089-252300-
   NORTHEAST OHIO

CITY           SKY/WX    TMP DP  RH WIND       PRES   REMARKS
CLE-HOPKINS    LGT SNOW  22  18  85 NE14      29.88R VSB 1   WCI   9
CLE-LAKEFRONT  LGT SNOW  23  18  81 NE15G23   29.87R WCI  10
CUY CO. ARPT   CLOUDY    25  19  80 NE14      29.85S WCI  13
LORAIN-ELYRIA  CLOUDY    21  17  84 NE16      29.85R WCI   7
ASHTABULA      CLOUDY    20  13  74 NE7       29.88R WCI  11
AKRON-CANTON   LGT SNOW  28  22  78 NE14      29.78R FOG     WCI  17
WOOSTER        LGT SNOW  27  24  89 NE12      29.79R FOG     WCI  17
MANSFIELD      LGT SNOW  23  20  88 NE15      29.76R VSB 3/4 WCI  10
YOUNGSTOWN     LGT SNOW  25  21  85 NE8       29.82R VSB 1   WCI  16
$$

OHZ042-051>053-060>062-070>072-077>081-252300-
  SOUTHWEST OHIO

CITY           SKY/WX    TMP DP  RH WIND       PRES   REMARKS
CINC-COVINGTON LGT RAIN  39  36  89 E7        29.64S FOG
CINC-LUNKEN    LGT RAIN  40  37  89 CALM      29.68R FOG
HAMILTON       LGT RAIN  39  38  96 E5        29.67S FOG
DAYTON         LGT SNOW  34  33  96 NE8       29.69R VSB 3/4 WCI  27
WRIGHT-PAT AFB LGT RAIN  37  36  94 E7        29.69R FOG
DAYTON GENERAL LGT RAIN  37  35  92 E7        29.66S FOG
WILMINGTON     LGT RAIN  37  34  89 E8        29.67S FOG
$$

OHZ036-037-039>041-045>050-054>059-063>069-073>076-082>088-252300-
  CENTRAL AND SOUTHEAST OHIO

CITY           SKY/WX    TMP DP  RH WIND       PRES   REMARKS
COLUMBUS       LGT RAIN  34  32  92 E8        29.72F VSB 1   WCI  27
OSU AIRPORT    SNOW      33  32  96 NE5       29.72R VSB 1/2 WCI  29
BOLTON FIELD   NOT AVBL
RICKENBACK AFB NOT AVBL
NEWARK         SNOW      33  32  96 CALM      29.74R VSB 1/2
MARION         LGT SNOW  25  21  85 NE16      29.76R FOG     WCI  12
LANCASTER      MIX PCPN  37  34  89 E6        29.73S FOG
ZANESVILLE     SNOW      33  31  92 CALM      29.75R VSB 1/2
NEW PHILLY     LGT SNOW  33  29  85 NE7       29.77S FOG     WCI  27
$$


USA.gov is the U.S. government's official web portal to all federal, state and local government web resources and services.